Location: Hilton Head Island
(32.2163°N, 80.7526°W)
Time: 23:11:43
(UTC-04:00)

Vanguard 1 - Pass Details

Date: 21 February 2026
Orbit: 653 x 3818 km, 34.2° (Epoch: 13 March)

Event Time Altitude Azimuth Distance (km) Brightness Sun altitude
Rises 20:16:56 0° 288° (WNW) 6,137 15.4 -26.6°
Reaches altitude 10° 20:20:25 10° 285° (WNW) 5,463 14.8 -27.3°
Maximum altitude 20:38:19 63° 210° (SSW) 3,883 12.9 -31.1°
Enters shadow 20:53:03 29° 143° (SE) 5,421 13.4 -34.2°
Drops below altitude 10° 21:01:18 10° 135° (SE) 6,736 - -35.9°
Sets 21:06:14 0° 132° (SE) 7,561 - -36.9°
